STARLINK-6066, 56105

Orbit data source: Space-Track

STARLINK-6066, 56105 is a payload satellite owned by SpaceX/Seattle (US) in LEO that was launched on Wed, 29 Mar 2023 UTC via an FALCON 9 launch vehicle from the Air Force Eastern Test Range (AFETR). Payload-class satellites include a variety of spacecraft equipped with specific instruments for various scientific and technological missions. These include communications satellites like Starlink; space stations such as the ISS; scientific satellites like the Hubble; Earth observation satellites from companies like Planet Labs, Umbra, and HawkEye 360; GPS; miniature CubeSats for education and research; and military/defense satellites.

Loading next visibility...
Identifier
56105, 2023-046N
Orbit
LEO
Country
Flag of USUS
Related business
Manufacturer
SpaceX/Seattle
Mission
Operational Commercial Communications
Bus & Motor
STARLINK, Unknown motor
Mass
305 kg wet, ~290 kg dry
Launch date (UTC)
2023-03-29 (3 years ago)
Launch vehicle
FALCON 9
Launch site
Air Force Eastern Test Range (AFETR)
Object type
Payload
Rocket body
Debris
Shape & HBR
Box + 1 Pan, 10.1 m
Radar Cross Section
11.087 m², Large (>1 m²)

Expand to show TLE details & history
Last TLE update: 2 days ago

TLE from 2 days ago
0 STARLINK-6066
1 56105U 23046N   26171.37696427  .00025742  00000-0  94167-3 0  9993
2 56105  42.9988 301.8484 0001423 177.4964 182.5895 15.27580731177737
Epoch: 2026-06-20T09:02Z
TLE epoch observation values (Epoch: 2026-06-20T09:02:49.712Z)
Latitude
-0.00003°
Longitude
-102.45124°
Altitude
483.797 km
Speed
7.625 km/s
True Right ascension
20h 07m 23s
True Declination
0° 00' 00"
Sunlit
Object was in full shadow at epoch
Visualization orbit readout
Latitude
Unknown
Longitude
Unknown
Altitude
Unknown
Speed
Unknown
Apparent Right ascension
Unknown
Apparent Declination
Unknown
Sunlit
N/A
Visualization observer readout
Local Sidereal Time
21:32:57
Azimuth
Unknown
Elevation
Unknown
Doppler factor
Unknown
Orbital elements
Apogee altitude
485.969 km
Perigee altitude
484.016 km
Semi-major axis
6,863.129 km
Eccentricity
0.00014
Inclination
42.9988°
RAAN
301.8484°
Arg. of periapsis
177.4964°
True anomaly
182.58876°
Mean anomaly
182.5895°
Eccentric anomaly
182.58913°
Mean motion
3.81733 °/min
Orbital period
94.31 mins
BSTAR
0.00094167
Loading maneuver chart data...
Computing Atmospheric mass density...
Loading historical data...
Loading historical data...
Loading historical data...
Loading historical data...
Loading historical data...
Loading historical data...
Loading historical data...

Documentation

Showing up to 5 results
|